Home   Weather   Jackson   Past weeks
Flag for USA

Past Weather in Jackson, Wyoming, USA — Yesterday and Last 2 Weeks

Now
55 °F

Passing clouds.


Feels Like: 51 °F
Forecast: 63 / 38 °F
Wind: 15 mph from Southwest

Location: Jackson Hole

Current Time: Jun 24, 2019 at 9:42:02 am

Latest Report: Jun 24, 2019 at 8:56 am


Visibility: 10 mi

Pressure: 29.92 "Hg (23.84 "Hg at 1901m altitude)

Humidity: 45%

Dew Point: 34 °F

Location of JacksonLocation

Past Weather in Jackson — Graph

°F

Jackson Temperature Yesterday

Maximum temperature yesterday: 59 °F (at 6:56 pm)
Minimum temperature yesterday: 34 °F (at 3:56 am)
Average temperature yesterday: 50 °F

High & Low Weather Summary for the Past Weeks

 TemperatureHumidityPressure
High74 °F (Jun 12, 3:56 pm)100% (Jun 18, 2:07 am)30.65 "Hg (Jun 18, 2:07 am)
Low24 °F (Jun 22, 5:56 am)21% (Jun 19, 9:56 pm)29.73 "Hg (Jun 20, 9:56 am)
Average52 °F60%30.07 "Hg
* Reported Jun 9 8:08 am — Jun 24 7:56 am, Jackson. Weather by CustomWeather, © 2019

Note: Actual official high and low records may vary slightly from our data, if they occured in-between our weather recording intervals... More about our weather records

Advertising

Jackson Weather History for the Previous 24 Hours

Scroll right to see more
 ConditionsComfort  
Time TempWeatherWind HumidityBarometerVisibility
7:56 am
Mon, Jun 24
53 °FPassing clouds.13 mph45%29.91 "Hg10 mi
6:56 am49 °FOvercast.6 mph52%29.93 "Hg10 mi
5:56 am45 °FOvercast.No wind56%29.94 "Hg10 mi
4:56 am46 °FPassing clouds.8 mph51%29.93 "Hg10 mi
3:56 am48 °FPassing clouds.13 mph50%29.92 "Hg10 mi
2:56 am49 °FPassing clouds.12 mph52%29.90 "Hg10 mi
1:56 am50 °FClear.13 mph50%29.90 "Hg10 mi
12:56 am47 °FClear.13 mph66%29.93 "Hg10 mi
11:56 pm
Sun, Jun 23
48 °FPassing clouds.10 mph66%29.92 "Hg10 mi
10:56 pm51 °FPassing clouds.7 mph61%29.93 "Hg10 mi
9:56 pm53 °FMostly cloudy.7 mph59%29.94 "Hg10 mi
8:56 pm57 °FMostly cloudy.15 mph47%29.92 "Hg10 mi
7:56 pm58 °FMostly cloudy.8 mph47%29.94 "Hg10 mi
6:56 pm59 °FOvercast.7 mph44%29.97 "Hg10 mi
5:56 pm58 °FOvercast.9 mph44%30.01 "Hg10 mi
4:56 pm55 °FOvercast.8 mph49%30.05 "Hg10 mi
3:56 pm57 °FLight rain. Mostly cloudy.12 mph47%30.05 "Hg10 mi
2:56 pm57 °FOvercast.10 mph49%30.05 "Hg10 mi
1:56 pm57 °FOvercast.10 mph46%30.06 "Hg10 mi
12:56 pm57 °FScattered clouds.15 mph46%30.05 "Hg10 mi
11:56 am57 °FOvercast.7 mph46%30.05 "Hg10 mi
10:56 am54 °FPartly sunny.6 mph51%30.06 "Hg10 mi
9:56 am51 °FPassing clouds.6 mph61%30.10 "Hg10 mi
Weather by CustomWeather, © 2019

See weather overview